Погода в Любани

Польша     51°07′00″N   15°17′17″E
темп.,
°C
ветер,
м/с
пор.,
м/с
влажн.,
%
обл.,
%
осадки,
мм/ч
давл.,
гПа
погр.,
м
3 марта, ср
ср301:00+5ю22660 0.0 103323
04:00+4ююз12570 0.0 103224
07:00+3ю22640 0.0 103126
10:00+9юз23540 0.0 1030252
13:00+11юз345016 0.0 1028492
16:00+11юз37560 0.0 1025580
19:00+6ююз34700 0.0 102585
22:00+7ююз367163 0.0 1023126
4 марта, чт
чт401:00+6юз497453 0.0 1022201
04:00+5юз488436 0.0 1020220
07:00+5юз379158 0.0 1019254
10:00+8зюз597732 0.0 1018729
13:00+11з586445 0.0 10161141
16:00+7зсз4777100 0.3 1014707
19:00+5сз2488100 1.3 1014505
22:00+2с3696100 2.5 1015371
5 марта, пт
пт501:00+1ссз2396100 3.1 1016258
04:000ссв4797100 0.9 1017421
07:00−2ссв4795100 2.1 1020516
10:00−1св4681100 0.7 1022827
13:00+1ссв455974 0.8 10231444
16:00+1с465799 0.1 10231570
19:00−2ссз277075 0.3 1027185
22:00−3с287464 0.1 1029416
6 марта, сб
сб601:00−4сз117833 0.1 103173
04:00−4сз13810 0.0 1032225
07:00−4зюз12810 0.0 1033160
10:00−1зсз22550 0.0 1034711
13:00+1зсз334211 0.0 10331290
16:00+1з35450 0.0 10311168
19:00−2юз23630 0.0 103156
22:00−2юз35610 0.0 1030105
7 марта, вс
вс701:00−2юз37600 0.0 1029184
04:00−2юз37590 0.0 1027189
07:00−2юз37590 0.0 1026232
10:00+2зюз58530 0.0 1025814
13:00+4з585323 0.0 10221035
16:00+4з575983 0.0 10211059
19:00−1зюз237956 0.0 102066
22:00−2з129038 0.0 102123